Weather History for Burbank, CA

Change the Weather History Date:

Tuesday, May 7, 2013

  Actual Average Record
Temperature  
Mean Temperature 64 °F 65 °F  
Max Temperature 71 °F 76 °F 100 °F (1941)
Min Temperature 57 °F 54 °F 40 °F (1964)
Degree Days  
Heating Degree Days 1 2  
Month to date heating degree days 4 19  
Since 1 July heating degree days 1105 1516  
Cooling Degree Days 0 2  
Month to date cooling degree days 34 14  
Year to date cooling degree days 161 65  
Growing Degree Days 14 (Base 50)    
Moisture  
Dew Point 49 °F    
Average Humidity 64    
Maximum Humidity 86    
Minimum Humidity 42    
Precipitation  
Precipitation 0.00 in 0.01 in 0.77 in (1955)
Month to date precipitation T 0.12  
Year to date precipitation 1.90 12.21  
Since 1 July precipitation 4.70 16.97  
Sea Level Pressure  
Sea Level Pressure 29.99 in    
Wind  
Wind Speed 4 mph (South)    
Max Wind Speed 14 mph    
Max Gust Speed 18 mph    
Visibility 10 miles    
Events Rain    
T = Trace of Precipitation, MM = Missing Value Source: NWS Daily Summary

Daily Weather History Graph

Daily Weather History Graph

Search for Another Location

Airport:

Trip Planner

Search our weather history database for the weather conditions in past years. The results will help you decide how hot, cold, wet, or windy it might be!

Date:

Astronomy

May. 07, 2013 Rise Set
Actual Time 5:57 AM PDT 7:42 PM PDT
Civil Twilight 5:30 AM PDT 8:09 PM PDT
Nautical Twilight 4:57 AM PDT 8:42 PM PDT
Astronomical Twilight 4:23 AM PDT 9:17 PM PDT
Moon 4:29 AM PDT (5/7) 5:51 PM PDT (5/7)
Length of Visible Light 14h 39m
Length of Day
13h 44m
Waning Crescent, 5% of the Moon is Illuminated
May 7
Waning Crescent
May 9
New
May 17
First Quarter
May 24
Full
May 31
Last Quarter

Hourly Weather History & Observations

Time (PDT) Temp. Dew Point Humidity Pressure Visibility Wind Dir Wind Speed Gust Speed Precip Events Conditions
12:53 AM 57.9 °F 52.0 °F 81% 29.99 in 6.0 mi NNE 5.8 mph - N/A Rain Light Rain
1:53 AM 57.0 °F 51.1 °F 81% 29.98 in 6.0 mi Calm Calm - N/A Rain Light Rain
2:53 AM 57.9 °F 51.1 °F 78% 29.97 in 10.0 mi Calm Calm - N/A   Overcast
3:53 AM 57.9 °F 52.0 °F 81% 29.97 in 10.0 mi Calm Calm - N/A   Overcast
4:53 AM 57.9 °F 52.0 °F 81% 29.96 in 10.0 mi Calm Calm - N/A   Overcast
5:53 AM 57.9 °F 53.1 °F 84% 29.97 in 10.0 mi Calm Calm - N/A   Overcast
6:53 AM 57.9 °F 52.0 °F 81% 29.99 in 10.0 mi Calm Calm - N/A   Overcast
7:53 AM 60.1 °F 52.0 °F 75% 29.99 in 10.0 mi Calm Calm - N/A   Overcast
8:53 AM 62.1 °F 50.0 °F 65% 30.00 in 10.0 mi Calm Calm - N/A   Mostly Cloudy
9:53 AM 64.9 °F 48.0 °F 54% 30.00 in 10.0 mi East 5.8 mph - N/A   Partly Cloudy
9:58 AM 64.4 °F 46.4 °F 52% 30.02 in 10.0 mi Variable 3.5 mph - N/A   Mostly Cloudy
10:00 AM 64.4 °F 46.4 °F 52% 30.02 in 10.0 mi ESE 4.6 mph - N/A   Mostly Cloudy
10:53 AM 64.9 °F 45.0 °F 48% 30.01 in 10.0 mi South 5.8 mph - N/A   Overcast
11:53 AM 66.9 °F 45.0 °F 45% 30.00 in - SSW 5.8 mph - N/A   Clear
12:53 PM 68.0 °F 45.0 °F 43% 29.99 in 10.0 mi North - - N/A   Mostly Cloudy
1:53 PM 70.0 °F 46.0 °F 42% 29.98 in 10.0 mi SSE 8.1 mph - N/A   Mostly Cloudy
2:53 PM 69.1 °F 46.9 °F 45% 29.98 in 10.0 mi SSW 11.5 mph - N/A   Mostly Cloudy
3:53 PM 70.0 °F 48.0 °F 46% 29.96 in 10.0 mi SSW 11.5 mph - N/A   Overcast
4:53 PM 68.0 °F 46.0 °F 45% 29.96 in 10.0 mi South 9.2 mph - N/A   Mostly Cloudy
5:53 PM 66.0 °F 46.9 °F 50% 29.97 in 10.0 mi South 9.2 mph - N/A   Overcast
6:53 PM 64.0 °F 50.0 °F 60% 29.98 in 10.0 mi South 9.2 mph - N/A   Overcast
7:53 PM 64.0 °F 50.0 °F 60% 29.99 in 10.0 mi Variable 5.8 mph - N/A   Overcast
8:53 PM 63.0 °F 51.1 °F 65% 30.00 in 10.0 mi SSE 3.5 mph - N/A   Overcast
9:53 PM 63.0 °F 52.0 °F 67% 30.01 in 10.0 mi Calm Calm - N/A   Mostly Cloudy
10:53 PM 64.0 °F 46.0 °F 52% 30.03 in 10.0 mi Calm Calm - N/A   Overcast
11:53 PM 63.0 °F 46.9 °F 56% 30.04 in 10.0 mi WSW 4.6 mph - N/A   Overcast